Probability
0 0 0 0 0 0 1 1 1 1 1 1 0 0 0 0 0 0 0 0 0 0 0 0 0 0 0 0 0 0 0 0 0 0 0 0 0 0 0 0 0 0 0
0 0 0 0 0 0 0 0 0 1 1 1 0 0 0 0 0 0 0 0 0 0 0 0 0 0 0 0 0 0 0 0 0 0 0 0 0 0 0 0 0 0 0
0 0 0 0 0 0 0 0 0 0 1 1 0 0 0 0 0 0 0 0 0 0 0 0 0 0 0 0 0 0 0 0 0 0 0 0 0 0 0 0 0 0 0
0 0 0 0 0 0 0 0 0 0 0 0 0 0 0 0 0 0 0 0 0 0 0 0 0 0 0 0 0 0 0 0 0 0 0 0 0 0 0 0 0 0 0
1 0 1 1 1 0 0 0 0 0 0 0 0 0 0 0 0 0 0 0 0 0 0 0 0 0 0 0 0 0 0 0 0 0 0 0 0 0 0 0 0 0 0
1 0 1 1 1 0 1 1 0 0 0 0 0 0 0 0 0 0 0 0 0 0 0 0 0 0 0 0 0 0 0 0 0 0 0 0 0 0 0 0 0 0 0
1 0 1 1 1 1 2 2 1 0 0 0 0 0 0 0 0 0 0 0 0 0 0 0 0 0 0 0 0 0 0 0 0 0 0 0 0 0 0 0 0 0 0
0 1 2 2 3 4 3 3 2 0 0 0 0 0 0 0 0 0 0 0 0 0 0 0 0 0 0 0 0 0 0 0 0 0 0 0 0 0 0 0 0 0 0
3 3 4 3 4 5 4 2 1 0 0 0 0 0 0 0 0 0 0 0 0 0 0 0 0 0 0 0 0 0 0 0 0 0 0 0 0 0 0 0 0 0 0
7 6 5 5 5 5 4 1 0 0 0 0 0 0 0 0 0 0 0 0 0 0 0 0 0 0 0 0 0 0 0 0 0 0 0 0 0 0 0 0 0 0 0
9 9 7 6 6 5 2 0 0 0 0 0 0 0 0 0 0 0 0 0 0 0 0 0 0 0 0 0 0 0 0 0 0 0 0 0 0 0 0 0 0 0 0
11 10 10 8 7 4 1 0 0 0 0 0 0 0 0 0 0 0 0 0 0 0 0 0 0 0 0 0 0 0 0 0 0 0 0 0 0 0 0 0 0 0 0
13 13 12 11 7 4 1 0 0 0 0 0 0 0 0 0 0 0 0 0 0 0 0 0 0 0 0 0 0 0 0 0 0 0 0 0 0 0 0 0 0 0 0
16 16 15 13 9 5 3 1 0 0 0 0 0 0 0 0 0 0 0 0 0 0 0 0 0 0 0 0 0 0 0 0 0 0 0 0 0 0 0 0 0 0 0
19 19 19 15 11 8 6 4 3 1 1 0 0 0 0 0 0 0 0 0 0 0 0 0 0 0 0 0 0 0 0 0 0 0 0 0 0 0 0 0 0 0 0
19 20 20 17 13 9 7 6 6 4 2 1 0 0 0 0 0 0 0 0 0 0 0 0 0 0 0 0 0 0 0 0 0 0 0 0 0 0 0 0 0 0 0
18 19 19 17 14 11 7 7 8 7 4 2 1 0 0 0 0 0 0 0 0 0 0 0 0 0 0 0 0 0 0 0 0 0 0 0 0 0 0 0 0 0 0
19 20 20 18 15 12 9 8 9 8 6 3 2 1 0 0 0 0 0 0 0 0 0 0 0 0 0 0 0 0 0 0 0 0 0 0 0 0 0 0 0 0 0
25 25 24 20 16 13 10 9 8 7 5 3 2 2 1 0 0 0 0 0 0 0 0 0 0 0 0 0 0 0 0 0 0 0 0 0 0 0 0 0 0 0 0
32 31 29 24 18 14 12 10 8 5 4 3 2 2 1 1 1 1 1 0 0 0 0 0 0 0 0 0 0 0 0 0 0 0 0 0 0 0 0 0 0 0 0
37 36 35 31 25 20 16 12 8 6 5 4 3 2 2 2 1 1 2 1 0 0 0 0 0 0 0 0 0 0 0 0 0 0 0 0 0 0 0 0 1 0 0
39 38 38 36 32 27 20 12 8 6 5 5 5 4 3 3 3 2 2 1 1 1 0 0 0 1 0 0 0 0 0 0 0 0 0 0 0 0 0 0 0 0 0
37 35 35 35 33 30 22 13 8 6 5 6 6 6 6 5 5 4 2 2 2 2 1 0 1 1 1 0 0 0 0 0 0 0 0 0 0 0 0 0 0 0 0
34 32 31 33 34 29 22 15 9 5 5 5 6 7 7 6 5 4 3 3 4 3 2 1 1 3 2 1 1 0 0 0 1 1 0 0 0 0 0 0 0 0 0
31 30 29 32 34 29 22 16 10 7 6 6 6 8 8 7 5 4 3 4 4 4 3 3 3 4 5 5 5 3 3 3 3 3 1 0 0 0 0 0 0 0 0
30 27 28 32 34 30 23 16 11 9 8 7 7 7 7 7 7 5 4 5 5 4 4 5 4 4 8 9 8 7 7 7 7 5 2 0 0 0 1 1 1 0 0
Wind_Speed
12 13 14 12 12 13 13 14 14 15 14 14 14 13 13 12 12 11 11 11 11 11 11 11 11 11 11 11 12 12 12 13 13 14 14 15 15 15 14 13 13 14 15
15 15 14 13 13 13 13 14 14 15 14 14 13 13 12 12 11 11 10 10 10 11 11 11 11 11 11 11 12 12 12 13 13 14 14 14 14 14 12 10 10 12 15
16 16 15 13 13 13 13 14 14 14 14 13 13 12 12 11 11 11 10 10 10 11 11 11 11 11 12 12 12 12 12 12 12 13 12 11 12 12 12 13 15 15 14
17 16 15 15 14 14 13 13 13 13 13 13 12 12 11 11 11 10 10 10 10 11 11 11 11 11 11 11 12 12 12 12 11 10 8 9 11 13 12 13 14 14 14
16 15 16 15 14 14 13 13 13 13 13 12 12 11 11 11 10 10 10 10 10 11 11 11 11 11 11 11 12 12 12 11 8 6 9 9 10 12 13 13 14 14 13
15 15 17 15 14 14 13 13 12 12 12 11 11 11 11 10 10 10 10 10 10 10 11 11 11 11 11 11 11 11 11 9 8 8 8 9 10 12 12 13 13 13 13
15 15 17 15 14 13 13 13 12 12 11 11 10 10 10 10 10 10 10 10 10 11 11 11 11 11 11 11 11 10 9 5 5 8 8 9 10 11 11 12 12 12 12
14 15 16 15 13 13 13 12 12 12 11 10 10 10 10 10 10 10 10 10 10 10 11 10 11 11 10 10 11 10 7 5 7 8 8 10 11 10 11 11 11 12 11
13 13 14 15 13 13 12 11 11 11 10 10 10 10 10 10 10 10 10 10 10 10 10 10 10 10 10 10 10 9 6 1 5 6 8 9 10 10 11 10 11 11 11
11 11 12 12 12 12 12 11 11 10 10 9 10 9 10 10 10 9 10 9 10 10 10 10 10 10 10 9 9 8 6 5 6 7 6 10 10 10 10 10 10 10 10
10 9 11 11 11 10 10 12 11 10 9 9 9 9 8 7 9 8 10 9 9 9 9 9 9 9 9 9 9 8 6 3 5 4 6 12 9 9 9 9 9 10 10
13 12 9 10 10 9 8 8 7 7 8 6 6 7 5 5 4 7 10 8 9 9 9 8 8 9 7 7 8 8 3 4 4 5 8 10 9 9 9 8 8 9 9
13 12 11 10 9 9 6 6 5 4 5 5 6 5 4 5 5 6 6 7 7 8 7 8 8 5 4 4 3 4 4 3 3 4 9 10 8 8 8 8 8 8 8
13 12 11 10 8 7 6 5 5 5 4 4 6 6 5 3 3 4 3 5 5 4 4 4 3 4 4 4 3 3 4 2 3 3 7 9 7 8 8 8 8 7 8
13 13 12 10 9 8 6 5 5 4 5 5 4 4 4 4 4 4 3 2 3 4 5 4 4 4 4 4 4 4 3 3 3 4 6 9 8 7 8 8 8 7 7
12 12 12 12 10 9 7 5 4 5 4 4 5 5 5 4 3 3 4 3 3 3 3 3 4 4 3 3 4 4 4 4 4 3 5 8 9 7 7 8 8 8 8
12 12 12 11 10 10 9 7 5 5 5 5 4 5 5 5 5 4 4 4 4 4 4 3 4 4 4 4 4 4 3 3 4 4 4 5 7 9 8 8 8 8 8
11 12 12 10 11 10 8 7 5 5 5 4 5 5 6 5 5 4 4 4 4 4 4 4 4 3 3 3 3 3 3 3 4 4 4 4 4 6 10 10 8 8 8
12 12 12 11 11 10 8 6 5 4 5 4 5 5 6 6 6 5 4 3 5 4 4 4 4 3 3 3 3 4 3 3 4 4 4 5 5 4 5 10 9 8 9
11 12 12 11 10 9 7 6 5 5 5 5 5 5 6 6 7 6 5 5 6 4 4 3 3 3 2 3 3 3 3 3 3 3 5 5 5 6 5 6 7 9 10
11 12 12 12 11 9 7 7 6 6 6 5 5 6 7 7 7 6 5 6 5 5 5 5 4 5 4 3 3 3 3 4 4 4 4 4 5 5 5 5 5 4 6
12 12 12 13 12 11 8 6 5 4 5 5 5 5 7 7 7 7 7 6 6 5 6 5 5 4 4 4 3 2 3 4 4 4 4 4 4 4 4 6 5 4 4
12 12 11 12 12 12 10 6 5 4 4 5 6 6 7 7 8 7 7 7 5 6 6 6 6 6 4 4 4 3 3 2 3 3 3 3 3 3 4 3 5 5 5
11 11 11 11 11 11 10 9 9 8 7 7 6 6 6 7 8 8 8 7 6 6 5 7 7 5 5 5 4 4 4 3 2 3 4 4 4 3 3 3 3 4 5
10 10 10 10 10 10 10 10 9 8 7 6 6 6 7 7 8 8 8 7 7 7 7 7 5 7 5 6 4 4 4 3 5 3 3 3 3 3 3 3 3 3 4
9 9 9 9 9 10 10 10 10 10 8 8 7 6 6 6 6 9 9 7 7 7 7 7 7 8 6 5 5 5 5 4 5 4 4 4 3 2 2 1 2 2 2
Wind_Direction
146 138 136 134 128 124 123 125 125 127 129 130 130 128 128 127 124 121 117 114 111 110 109 109 111 114 115 114 113 112 111 110 111 112 114 114 114 113 115 119 122 108 109
139 136 139 137 131 127 125 125 125 126 128 129 129 129 129 128 125 121 118 116 113 111 110 110 109 111 113 114 116 116 113 111 113 115 117 116 114 115 116 111 98 106 113
139 138 144 138 134 130 127 125 125 126 128 128 129 128 128 128 125 123 121 117 114 111 110 110 110 111 111 113 116 118 117 116 118 124 131 122 116 115 112 106 107 114 113
141 143 143 137 136 132 129 127 126 128 129 129 129 129 128 126 125 125 123 121 117 114 113 112 111 112 112 114 117 118 117 118 126 149 135 120 120 116 117 115 115 115 113
140 139 133 142 138 134 131 128 128 128 128 129 129 128 126 125 124 124 123 122 119 117 116 115 112 113 113 113 114 115 116 119 140 155 109 109 109 119 121 118 117 116 116
142 143 135 145 140 137 134 132 130 129 128 128 126 125 125 123 122 121 122 122 121 119 117 114 114 113 114 114 115 116 118 135 169 113 110 115 113 122 123 122 121 120 120
146 142 137 145 142 139 137 135 133 132 130 127 123 121 121 120 119 118 120 120 121 120 118 116 116 116 117 116 115 116 122 160 125 111 114 111 108 121 124 123 122 121 120
148 142 135 144 144 142 140 138 136 134 131 129 127 124 121 119 116 115 118 120 120 120 120 120 120 118 119 119 117 118 133 191 124 113 112 107 108 121 124 125 125 124 123
149 144 146 150 149 145 141 139 137 135 131 129 128 126 123 120 118 117 118 119 121 121 123 124 121 120 120 120 119 118 120 272 126 118 119 109 118 125 127 129 128 128 129
152 151 152 157 151 156 150 146 141 137 133 131 131 130 130 129 126 127 130 120 123 126 126 127 125 125 124 124 124 123 142 214 126 129 118 113 126 130 130 133 135 135 135
163 161 161 155 156 158 151 146 150 145 142 148 143 140 158 150 138 148 113 125 129 130 130 129 130 131 137 134 133 143 179 165 117 108 100 112 134 137 138 139 140 141 141
170 168 166 161 161 161 152 149 156 160 155 167 145 153 152 132 131 118 119 129 130 132 134 128 134 156 180 143 144 179 166 136 140 128 110 125 141 144 145 145 145 146 145
171 169 169 167 168 163 158 158 157 159 152 158 148 149 142 149 144 142 142 144 145 156 150 146 171 167 144 119 147 143 135 152 138 129 122 140 151 153 152 154 154 155 151
172 170 171 168 170 172 167 161 167 168 166 161 153 173 162 163 156 140 149 147 157 150 145 151 147 136 133 135 135 130 153 159 132 116 125 146 158 162 161 161 164 163 158
175 174 173 173 172 172 171 180 175 176 173 161 159 172 176 173 168 153 149 160 164 147 159 164 150 142 152 157 158 153 150 121 136 146 130 151 162 170 171 170 172 170 170
179 177 176 179 178 177 178 185 181 184 181 181 175 173 190 184 162 169 164 171 169 172 160 166 154 160 172 151 164 155 169 156 152 165 150 152 167 177 181 179 180 180 184
181 179 180 181 181 181 185 189 190 193 188 193 179 177 191 195 170 187 171 182 171 162 161 186 172 176 176 173 168 170 179 172 163 174 170 161 165 176 184 187 187 188 193
181 182 183 185 181 185 189 191 196 200 200 198 194 187 195 198 191 204 190 188 171 183 181 179 199 189 187 188 171 190 178 171 174 179 183 181 180 174 176 185 192 196 203
183 182 184 188 184 185 186 189 202 202 213 212 203 199 198 204 201 212 204 176 190 194 193 200 182 197 193 195 184 181 187 182 182 192 188 186 183 195 175 165 187 200 210
185 184 186 186 183 183 185 191 200 209 214 215 212 204 205 207 205 215 206 193 204 195 199 210 179 201 217 212 226 167 189 182 196 190 204 189 186 194 195 178 186 193 203
185 185 187 187 182 183 187 195 197 205 212 214 213 210 210 213 205 215 222 193 211 204 212 205 199 197 207 202 212 201 200 198 192 193 209 201 189 192 191 190 209 198 186
189 189 188 190 188 190 192 196 201 205 212 211 213 212 215 213 212 208 219 216 207 207 214 218 212 225 207 198 222 214 208 190 199 197 191 195 196 189 194 194 197 202 221
190 191 192 192 192 195 193 192 194 195 212 212 210 208 211 214 218 225 216 227 218 220 210 215 213 219 225 213 222 237 237 211 182 173 193 188 191 197 204 196 200 196 205
190 188 191 189 193 194 194 200 202 205 208 213 214 210 207 214 222 222 222 223 224 228 217 221 213 222 226 229 210 234 266 304 250 184 182 180 184 200 210 217 200 195 202
185 183 185 188 191 193 198 204 209 219 220 218 215 216 220 217 221 225 222 220 221 229 226 234 222 231 225 231 229 219 223 227 244 239 213 189 179 187 190 205 208 200 193
178 179 180 183 190 193 198 205 211 222 223 224 221 220 217 216 216 221 222 218 221 228 224 225 226 225 237 237 244 241 228 224 225 225 223 211 195 182 159 157 203 192 188